Weather History for El Dorado, AR

Change the Weather History Date:

Tuesday, August 20, 2013

  Actual Average Record
Temperature  
Mean Temperature 80 °F 81 °F  
Max Temperature 92 °F 93 °F 105 °F (1934)
Min Temperature 67 °F 70 °F 58 °F (1940)
Degree Days  
Heating Degree Days 0 0  
Month to date heating degree days 0 0  
Since 1 June heating degree days 0 0  
Since 1 July heating degree days 0 0  
Cooling Degree Days 15 16  
Month to date cooling degree days 319 336  
Year to date cooling degree days 1476 1559  
Since 1 June cooling degree days 1198 1248  
Growing Degree Days 30 (Base 50)    
Moisture  
Dew Point 65 °F    
Average Humidity 65    
Maximum Humidity 93    
Minimum Humidity 36    
Precipitation  
Precipitation 0.00 in 0.11 in 1.94 in (1994)
Month to date precipitation T 2.07  
Year to date precipitation 25.82 33.51  
Snow  
Snow 0.00 in - - ()
Month to date snowfall 0.0  
Since 1 June snowfall 0.0  
Since 1 July snowfall 0.0  
Snow Depth 0.00 in    
Sea Level Pressure  
Sea Level Pressure 30.03 in    
Wind  
Wind Speed 2 mph (East)    
Max Wind Speed 10 mph    
Max Gust Speed 15 mph    
Visibility 10 miles    
Events      
T = Trace of Precipitation, MM = Missing Value Source: NWS Daily Summary

Daily Weather History Graph

Daily Weather History Graph

Search for Another Location

Airport:

Trip Planner

Search our weather history database for the weather conditions in past years. The results will help you decide how hot, cold, wet, or windy it might be!

Date:

Astronomy

Aug. 20, 2013 Rise Set
Actual Time 6:37 AM CDT 7:50 PM CDT
Civil Twilight 6:11 AM CDT 8:16 PM CDT
Nautical Twilight 5:40 AM CDT 8:47 PM CDT
Astronomical Twilight 5:08 AM CDT 9:19 PM CDT
Moon 7:26 PM CDT (8/20) 6:06 AM CDT (8/20)
Length of Visible Light 14h 04m
Length of Day
13h 13m
Full, 100% of the Moon is Illuminated
Aug 20
Full
Aug 20
Full
Aug 28
Last Quarter
Sep 5
New
Sep 12
First Quarter

Hourly Weather History & Observations

Time (CDT) Temp. Heat Index Dew Point Humidity Pressure Visibility Wind Dir Wind Speed Gust Speed Precip Events Conditions
12:53 AM 72.0 °F - 66.9 °F 84% 30.02 in 10.0 mi Calm Calm - N/A   Partly Cloudy
1:53 AM 72.0 °F - 66.9 °F 84% 30.02 in 10.0 mi Calm Calm - N/A   Mostly Cloudy
2:53 AM 70.0 °F - 66.0 °F 87% 30.01 in 10.0 mi Calm Calm - N/A   Clear
3:53 AM 69.1 °F - 66.0 °F 90% 30.02 in 10.0 mi Calm Calm - N/A   Mostly Cloudy
4:53 AM 68.0 °F - 66.0 °F 93% 30.02 in 10.0 mi Calm Calm - N/A   Mostly Cloudy
5:53 AM 68.0 °F - 66.0 °F 93% 30.03 in 10.0 mi Calm Calm - N/A   Scattered Clouds
6:53 AM 68.0 °F - 66.0 °F 93% 30.04 in 7.0 mi NW 4.6 mph - N/A   Scattered Clouds
7:53 AM 71.1 °F - 66.9 °F 87% 30.06 in 9.0 mi Calm Calm - N/A   Clear
8:53 AM 75.9 °F - 69.1 °F 79% 30.08 in 10.0 mi Calm Calm - N/A   Clear
9:53 AM 82.0 °F 85.5 °F 69.1 °F 65% 30.08 in 10.0 mi Calm Calm - N/A   Clear
10:53 AM 84.9 °F 88.8 °F 69.1 °F 59% 30.09 in 10.0 mi NE 4.6 mph - N/A   Clear
11:53 AM 87.1 °F 89.9 °F 66.9 °F 51% 30.08 in 10.0 mi ENE 6.9 mph - N/A   Clear
12:53 PM 89.1 °F 91.0 °F 64.9 °F 45% 30.06 in 10.0 mi Variable 3.5 mph - N/A   Clear
1:53 PM 90.0 °F 92.4 °F 66.0 °F 45% 30.04 in 10.0 mi East 6.9 mph - N/A   Scattered Clouds
2:53 PM 91.0 °F 91.9 °F 63.0 °F 39% 30.03 in 10.0 mi Variable 5.8 mph - N/A   Clear
3:53 PM 91.0 °F 91.9 °F 63.0 °F 39% 30.01 in 10.0 mi Variable 3.5 mph - N/A   Clear
4:53 PM 91.0 °F 91.5 °F 62.1 °F 38% 30.00 in 10.0 mi East 6.9 mph - N/A   Scattered Clouds
5:53 PM 91.0 °F 90.5 °F 60.1 °F 35% 29.99 in 10.0 mi South 3.5 mph - N/A   Clear
6:53 PM 89.1 °F 88.2 °F 59.0 °F 36% 29.99 in 10.0 mi SE 4.6 mph - N/A   Clear
7:53 PM 82.0 °F 83.1 °F 63.0 °F 52% 30.00 in 10.0 mi Calm Calm - N/A   Clear
8:53 PM 75.0 °F - 64.9 °F 71% 30.01 in 10.0 mi Calm Calm - N/A   Clear
9:53 PM 73.0 °F - 64.9 °F 76% 30.02 in 10.0 mi Calm Calm - N/A   Clear
10:53 PM 72.0 °F - 64.0 °F 76% 30.03 in 10.0 mi Calm Calm - N/A   Clear
11:53 PM 73.9 °F - 66.9 °F 79% 30.04 in 10.0 mi Calm Calm - N/A   Scattered Clouds